THORAD AGENA D DEB, 4864

Orbit data source: Space-Track

THORAD AGENA D DEB, 4864 is space debris in SSO originally from a launch on Wed, 08 Apr 1970 UTC launched from the Air Force Western Test Range (AFWTR). Debris objects in space refer to the collection of defunct objects orbiting the Earth. Examples of debris include non-operational satellites, rocket bodies, and fragments generated from explosions, collisions, or faulty payload assembly.

Loading next visibility...
Identifier
4864, 1970-025EU
Orbit
SSO
Country
Flag of USUS
Related business
Manufacturer
Unknown
Mission
Spacecraft
Bus & Motor
Unknown
Mass
Unknown
Launch date (UTC)
1970-04-08 (56 years ago)
Launch vehicle
Unknown
Launch site
Air Force Western Test Range (AFWTR)
Object type
Payload
Rocket body
Debris
Shape & HBR
Unknown shape, 0.1 m
Radar Cross Section
Small (<0.1 m²)

Expand to show TLE details & history
Last TLE update: 19 hours ago

TLE from 19 hours ago
0 THORAD AGENA D DEB
1 04864U 70025EU  25301.27397370  .00000193  00000-0  37052-3 0  9998
2 04864  99.5054  62.0908 0045953 345.9916  76.3168 13.49453643729678
Epoch: 2025-10-28T06:34Z
TLE epoch observation values (Epoch: 2025-10-28T06:34:31.327Z)
Latitude
61.41867°
Longitude
-91.20774°
Altitude
1,076.74 km
Speed
7.323 km/s
True Right ascension
02h 57m 08s
True Declination
61° 16' 49"
Sunlit
Object was in full shadow at epoch
Visualization orbit readout
Latitude
Unknown
Longitude
Unknown
Altitude
Unknown
Speed
Unknown
Apparent Right ascension
Unknown
Apparent Declination
Unknown
Sunlit
N/A
Visualization observer readout
Local Sidereal Time
21:13:07
Azimuth
Unknown
Elevation
Unknown
Doppler factor
Unknown
Orbital elements
Apogee altitude
1,105.795 km
Perigee altitude
1,037.328 km
Semi-major axis
7,449.698 km
Eccentricity
0.0046
Inclination
99.5054°
RAAN
62.0908°
Arg. of periapsis
345.9916°
True anomaly
76.82913°
Mean anomaly
76.3168°
Eccentric anomaly
76.57289°
Mean motion
3.37548 °/min
Orbital period
106.65 mins
BSTAR
0.00037052
Loading maneuver chart data...
Computing Atmospheric mass density...

Documentation

Showing up to 5 results
|